Content
SEND FEEDBACK

Daily
Averages
Monthly
Summary
United States of America

MADRAS, OREGON


Home > North America > United States > Oregon
Elevation: 2416 feet     Latitude: 44 38N     Longitude: 121 08W

WEATHER
 
SELECT A DAY
Number of Records: 228,826;   Date Range: 1/1/95 - 8/28/14
 
SHARE

PRINT THIS DATA

[ ← Previous Day ]
WEATHER ALMANAC - JANUARY 31, 2013
[ Next Day → ]
[ °C ]   °F
Weather ElementAverageHighLow
Temperature37 °F48.9 °F (1:56 pm)28 °F (5:56 am)
Dewpoint29.4 °F32 °F (11:56 am)26.1 °F (5:56 am)
Humidity75.9 %92 % (4:56 am)52 % (1:56 pm)
Barometer30.35 in30.40 in (8:56 am)30.30 in (3:56 pm)
Wind Speed3.7 mph6.9 mph (1:56 am)
Weather ElementAverage
Visibility10 mi
Wind DirectionESE (118.2 °)

Weather ElementTotal
Precipitation---
Heating Degree Days26.6 (Base 65)
Averaged from 22 records on January 31, 2013
WEATHER CONDITIONS BREAKOUT
WIND DIRECTION BREAKOUT
WEATHER BY HOUR - JANUARY 31, 2013
[ °C ]   °F
Local TimeTemperatureDewpointHumidityBarometerVisibilityWind DirectionWind SpeedGust SpeedPrecipitationEventsConditions
1:56 AM34.0 °F30.0 °F85 %30.38 in10.0 miSSE (150°)6.9 mphClear
2:56 AM32.0 °F28.9 °F88 %30.38 in10.0 miNE (50°)3.5 mphClear
3:56 AM30.9 °F28.0 °F89 %30.38 in10.0 miESE (120°)4.6 mphClear
4:56 AM30.0 °F28.0 °F92 %30.37 in10.0 miEast (100°)4.6 mphClear
5:56 AM28.0 °F26.1 °F92 %30.38 in10.0 miSouth (170°)4.6 mphClear
6:56 AM28.9 °F27.0 °F92 %30.39 in10.0 miSE (130°)4.6 mphClear
7:56 AM30.0 °F27.0 °F88 %30.39 in10.0 miCalmClear
8:56 AM36.0 °F30.9 °F82 %30.40 in10.0 miSouth (180°)5.8 mphClear
9:56 AM39.0 °F30.9 °F73 %30.39 in10.0 miSSE (160°)4.6 mphClear
10:56 AM41.0 °F30.9 °F67 %30.37 in10.0 miSE (140°)5.8 mphClear
11:56 AM45.0 °F32.0 °F60 %30.35 in10.0 miCalmClear
12:56 PM48.0 °F32.0 °F54 %30.33 in10.0 miVariable4.6 mphClear
1:56 PM48.9 °F32.0 °F52 %30.31 in10.0 miVariable5.8 mphClear
2:56 PM48.0 °F30.9 °F52 %30.31 in10.0 miNNW (330°)4.6 mphClear
3:56 PM48.0 °F30.9 °F52 %30.30 in10.0 miNNE (20°)3.5 mphClear
4:56 PM46.0 °F30.9 °F56 %30.31 in10.0 miNorth (360°)3.5 mphClear
5:56 PM36.0 °F28.9 °F76 %30.33 in10.0 miNorth (350°)3.5 mphClear
6:56 PM36.0 °F30.0 °F79 %30.33 in10.0 miCalmOvercast
7:56 PM35.1 °F30.0 °F82 %30.35 in10.0 miCalmOvercast
8:56 PM32.0 °F28.0 °F85 %30.34 in10.0 miCalmClear
10:56 PM30.9 °F27.0 °F85 %30.34 in10.0 miSSE (160°)5.8 mphClear
11:56 PM30.0 °F27.0 °F88 %30.34 in10.0 miSouth (180°)4.6 mphClear
Hourly data recorded from KRDM, located miles away from Madras, Oregon







STORIES FROM OUR PARTNERS